Weather observations for the past three days for
Atlantic
Imperial (Metric)
Date Time (cdt) Wind (mph) Vis. (mi.) Weather Sky Cond. Temperature (ºF) Relative Humidity Wind Chill (°F) Heat Index (°F) Pressure Precipitation (in)
Air Dwpt 6 hour altimeter (in) sea level (mb) 1 hr 3 hr 6 hr
Max. Min.
12 05:35 Calm 8.00 Mostly Cloudy BKN065 62.6 62.6 100% 30.04 0.0
12 05:15 N 5 9.00 Partly Cloudy SCT055 62.6 62.6 100% 30.03 0.0
12 04:55 NE 3 10.00 A Few Clouds FEW055 62.6 62.6 100% 30.02 0.0
12 04:35 N 5 9.00 Fair CLR 62.6 62.6 100% 30.02 0.0
12 04:15 NE 3 10.00 Fair CLR 62.6 62.6 100% 30.03 0.0
12 03:55 NE 3 10.00 Fair CLR 62.6 62.6 100% 30.03 0.0
12 03:35 NE 5 10.00 Fair CLR 62.6 62.6 100% 30.03 0.0
12 03:15 N 3 10.00 Fair CLR 62.6 62.6 100% 30.03 0.0
12 02:55 NE 3 10.00 Fair CLR 64.4 64.4 100% 30.03 0.0
12 02:35 N 5 10.00 Fair CLR 64.4 64.4 100% 30.04 0.0
12 02:15 Calm 10.00 Fair CLR 64.4 64.4 100% 30.05 0.0
12 01:55 Calm 10.00 Fair CLR 66.2 66.2 100% 30.06 0.0
12 01:35 Calm 10.00 Fair CLR 66.2 66.2 100% 30.06 0.0
12 01:15 Calm 10.00 Fair CLR 66.2 66.2 100% 30.06 0.0
12 00:55 Calm 10.00 Fair CLR 66.2 66.2 100% 30.07 0.0
12 00:30 N 3 10.00 Fair CLR 66.2 66.2 100% 30.07 0.0
12 00:15 N 3 10.00 Fair CLR 66.2 66.2 100% 30.07 0.0
11 23:55 N 5 10.00 Fair CLR 68 66.2 94% 30.07 0.0
11 23:35 NE 6 10.00 Fair CLR 68 66.2 94% 30.06 0.0
11 23:15 NE 3 10.00 Fair CLR 68 66.2 94% 30.05 0.0
11 22:55 Calm 10.00 Fair CLR 68 66.2 94% 30.06 0.0
11 22:35 Calm 10.00 Fair CLR 71.6 66.2 83% 30.05 0.0
11 22:15 Calm 10.00 Fair CLR 71.6 68 88% 30.05 0.0
11 21:55 E 5 10.00 Fair CLR 73.4 68 83% 30.04 0.0
11 21:35 Calm 10.00 Fair CLR 73.4 68 83% 30.04 0.0
11 21:15 E 6 10.00 Fair CLR 73.4 68 83% 30.04 0.0
11 20:55 E 6 10.00 Fair CLR 75.2 68 78% 76 30.03 0.0
11 20:35 E 6 10.00 Fair CLR 77 68 74% 79 30.03 0.0
11 20:15 E 6 10.00 Fair CLR 77 68 74% 79 30.03 0.0
11 19:55 SE 6 10.00 Fair CLR 78.8 66.2 65% 81 30.03 0.0
11 19:35 E 6 10.00 Fair CLR 78.8 66.2 65% 81 30.04 0.0
11 19:15 E 8 10.00 Fair CLR 80.6 66.2 62% 83 30.03 0.0
11 18:55 SE 7 G 13 10.00 Fair CLR 80.6 66.2 62% 83 30.03 0.0
11 18:35 E 6 G 13 10.00 A Few Clouds FEW045 80.6 66.2 62% 83 30.03 0.0
11 18:15 E 13 10.00 Partly Cloudy FEW044 FEW050 SCT055 80.6 66.2 62% 83 30.03 0.0
11 17:55 E 6 10.00 A Few Clouds FEW044 FEW055 80.6 66.2 62% 83 30.03 0.0
11 17:35 SE 8 G 14 10.00 A Few Clouds FEW045 FEW055 80.6 64.4 58% 82 30.04 0.0
11 17:15 E 10 10.00 A Few Clouds FEW047 80.6 66.2 62% 83 30.04 0.0
11 16:55 E 6 10.00 A Few Clouds FEW047 82.4 64.4 55% 84 30.04 0.0
11 16:35 E 8 10.00 Partly Cloudy SCT045 82.4 68 62% 85 30.05 0.0
11 16:15 E 8 10.00 Partly Cloudy SCT045 SCT050 82.4 66.2 58% 85 30.05 0.0
11 15:55 E 8 10.00 A Few Clouds FEW046 82.4 64.4 55% 84 30.05 0.0
11 15:35 Vrbl 7 10.00 Partly Cloudy SCT045 82.4 64.4 55% 84 30.05 0.0
11 15:15 E 8 10.00 A Few Clouds FEW046 80.6 66.2 62% 83 30.05 0.0
11 14:55 E 8 10.00 Partly Cloudy SCT046 80.6 64.4 58% 82 30.06 0.0
11 14:35 NE 7 10.00 A Few Clouds FEW047 80.6 66.2 62% 83 30.06 0.0
11 14:15 E 7 10.00 Fair CLR 80.6 66.2 62% 83 30.06 0.0
11 13:55 Vrbl 6 G 13 10.00 Fair CLR 80.6 64.4 58% 82 30.06 0.0
11 13:35 NE 10 10.00 Fair CLR 80.6 66.2 62% 83 30.07 0.0
11 13:15 E 6 10.00 Fair CLR 80.6 66.2 62% 83 30.07 0.0
11 12:55 E 6 G 12 10.00 Fair CLR 78.8 66.2 65% 81 30.07 0.0
11 12:35 E 9 10.00 Fair CLR 78.8 68 70% 81 30.08 0.0
11 12:15 Vrbl 6 10.00 Fair CLR 77 68 74% 79 30.08 0.0
11 11:55 Vrbl 7 10.00 Fair CLR 77 66.2 69% 79 30.08 0.0
11 11:35 NE 7 10.00 Fair CLR 77 66.2 69% 79 30.09 0.0
11 11:15 Vrbl 3 10.00 Fair CLR 75.2 66.2 74% 77 30.09 0.0
11 10:55 NE 5 10.00 Fair CLR 75.2 66.2 74% 77 30.09 0.0
11 10:35 NE 6 10.00 Fair CLR 75.2 64.4 69% 77 30.09 0.0
11 10:15 Vrbl 3 10.00 Fair CLR 73.4 64.4 74% 30.09 0.0
11 09:55 NE 5 10.00 Fair CLR 73.4 64.4 74% 30.09 0.0
11 09:35 Calm 10.00 Fair CLR 71.6 62.6 73% 30.09 0.0
11 09:15 NE 6 9.00 Fair CLR 71.6 64.4 78% 30.09 0.0
11 08:55 NE 5 10.00 Fair CLR 69.8 64.4 83% 30.09 0.0
11 08:15 Calm 9.00 Fair CLR 66.2 66.2 100% 30.08 0.0
11 07:55 Calm 9.00 Fair CLR 64.4 64.4 100% 30.08 0.0
11 07:15 Calm 7.00 Fair CLR 60.8 60.8 100% 30.08 0.0
11 06:55 Calm 5.00 Fog/Mist CLR 59 59 100% 30.07 0.0
11 06:35 Calm 3.00 Fog/Mist CLR 59 59 100% 30.06 0.0
11 06:15 Calm 0.15 Fog VV000 57.2 57.2 100% 30.06 0.0
11 05:55 Calm 0.50 Fog VV005 59 59 100% 30.05 0.0
11 05:35 Calm 1.25 Fog/Mist SCT001 59 59 100% 30.06 0.0
11 05:15 S 3 4.00 Fog/Mist CLR 59 59 100% 30.05 0.0
11 04:55 Calm 7.00 A Few Clouds FEW002 59 59 100% 30.05 0.0
11 04:35 Calm 4.00 Fog/Mist CLR 59 59 100% 30.05 0.0
11 04:15 N 5 5.00 Fog/Mist CLR 59 59 100% 30.04 0.0
11 03:55 N 5 6.00 Fog/Mist CLR 59 59 100% 30.05 0.0
11 03:15 Calm 10.00 Fair CLR 60.8 60.8 100% 30.05 0.0
11 02:55 Calm 7.00 Fair CLR 60.8 60.8 100% 30.04 0.0
11 02:35 N 6 6.00 Fog/Mist CLR 60.8 60.8 100% 30.04 0.0
11 02:15 N 5 9.00 Fair CLR 60.8 60.8 100% 30.04 0.0
11 01:55 Calm 10.00 Fair CLR 60.8 60.8 100% 30.03 0.0
11 01:35 Calm 10.00 Fair CLR 62.6 62.6 100% 30.03 0.0
11 01:15 Calm 10.00 A Few Clouds FEW034 62.6 62.6 100% 30.04 0.0
11 00:55 Calm 10.00 Fair CLR 64.4 64.4 100% 30.04 0.0
11 00:35 Calm 10.00 Fair CLR 64.4 64.4 100% 30.04 0.0
11 00:15 N 5 10.00 Fair CLR 64.4 64.4 100% 30.04 0.0
10 23:55 N 3 10.00 Fair CLR 64.4 64.4 100% 30.04 0.0
10 23:35 N 3 10.00 Fair CLR 66.2 64.4 94% 30.04 0.0
10 23:15 N 3 10.00 Fair CLR 66.2 66.2 100% 30.02 0.0
10 22:55 N 5 10.00 Fair CLR 66.2 66.2 100% 30.02 0.0
10 22:35 N 6 10.00 Fair CLR 66.2 66.2 100% 30.02 0.0
10 22:15 N 6 10.00 Fair CLR 66.2 66.2 100% 30.02 0.0
10 21:55 N 5 10.00 Fair CLR 68 68 100% 30.02 0.0
10 21:35 N 5 10.00 Fair CLR 68 68 100% 30.01 0.0
10 21:15 Calm 10.00 Fair CLR 71.6 68 88% 30.01 0.0
10 20:55 Calm 10.00 Partly Cloudy SCT044 73.4 68 83% 30 0.0
10 20:35 N 3 10.00 A Few Clouds FEW043 75.2 68 78% 76 30 0.0
10 20:15 N 7 10.00 Fair CLR 75.2 68 78% 76 30 0.0
10 19:55 N 8 10.00 Fair CLR 77 68 74% 79 29.97 0.0
10 19:35 N 7 10.00 Partly Cloudy FEW041 SCT055 SCT075 77 68 74% 79 29.98 0.0
10 19:15 N 6 10.00 A Few Clouds FEW090 77 68 74% 79 29.98 0.0
10 18:55 N 5 10.00 Fair CLR 78.8 68 70% 81 29.98 0.0
10 18:35 N 6 10.00 Fair CLR 78.8 66.2 65% 81 29.98 0.0
10 18:15 N 9 10.00 Fair CLR 78.8 66.2 65% 81 29.98 0.0
10 17:55 N 8 10.00 Fair CLR 80.6 66.2 62% 83 29.97 0.0
10 17:35 N 8 G 15 10.00 Fair CLR 80.6 66.2 62% 83 29.97 0.0
10 17:15 N 8 10.00 Fair CLR 80.6 66.2 62% 83 29.97 0.0
10 16:55 N 9 10.00 Fair CLR 80.6 64.4 58% 82 29.97 0.0
10 16:35 N 8 10.00 Fair CLR 80.6 64.4 58% 82 29.97 0.0
10 16:15 NE 7 10.00 Fair CLR 80.6 66.2 62% 83 29.97 0.0
10 15:55 N 7 10.00 Fair CLR 80.6 64.4 58% 82 29.96 0.0
10 15:35 N 7 10.00 Fair CLR 78.8 64.4 61% 81 29.96 0.0
10 15:15 N 7 G 16 10.00 Fair CLR 77 68 74% 79 29.96 0.0
10 14:55 N 10 10.00 Fair CLR 78.8 68 70% 81 29.96 0.0 0.02
10 14:35 N 6 10.00 A Few Clouds FEW085 75.2 69.8 83% 75 29.96 0.0
10 14:15 NE 5 10.00 A Few Clouds FEW085 73.4 68 83% 29.98 0.0
10 13:55 NE 9 9.00 Light Rain SCT041 SCT100 71.6 68 88% 29.97 0.0 0.05
10 13:35 N 12 10.00 Mostly Cloudy BKN041 BKN050 BKN080 77 68 74% 79 30 0.0
10 13:15 N 13 G 18 9.00 A Few Clouds FEW042 FEW050 FEW080 77 68 74% 79 29.99 0.0
10 12:55 NE 8 10.00 Fair CLR 80.6 66.2 62% 83 29.98 0.0
10 12:35 NE 9 10.00 Fair CLR 78.8 68 70% 81 29.98 0.0
10 12:15 NE 5 G 13 10.00 Fair CLR 78.8 69.8 74% 81 29.98 0.0
10 11:55 N 9 10.00 Fair CLR 78.8 69.8 74% 81 29.99 0.0
10 11:35 Calm 10.00 Fair CLR 78.8 69.8 74% 81 29.98 0.0
10 11:15 SW 3 10.00 Fair CLR 78.8 68 70% 81 29.98 0.0
10 10:55 S 5 10.00 Fair CLR 77 68 74% 79 29.98 0.0
10 10:35 S 3 10.00 Fair CLR 77 68 74% 79 29.98 0.0
10 10:15 S 3 10.00 Fair CLR 75.2 68 78% 76 29.98 0.0
10 09:55 Calm 10.00 Fair CLR 73.4 68 83% 29.98 0.0
10 09:35 Calm 10.00 Fair CLR 73.4 66.2 78% 29.99 0.0
10 09:15 NW 6 10.00 Fair CLR 73.4 68 83% 29.99 0.0
10 08:55 NW 5 10.00 Fair CLR 71.6 68 88% 29.99 0.0
10 08:35 W 3 10.00 A Few Clouds FEW075 71.6 68 88% 29.98 0.0
10 08:15 Vrbl 3 10.00 Partly Cloudy SCT070 71.6 68 88% 29.98 0.0
10 07:55 Calm 10.00 Mostly Cloudy BKN070 68 68 100% 29.98 0.0
10 07:35 SW 5 9.00 Fair CLR 66.2 66.2 100% 29.97 0.0
10 07:15 Calm 8.00 A Few Clouds FEW090 64.4 64.4 100% 29.97 0.0
10 06:55 Calm 8.00 Partly Cloudy SCT090 64.4 64.4 100% 29.97 0.0
10 06:35 Calm 9.00 Fair CLR 62.6 62.6 100% 29.97 0.0
10 06:15 Calm 9.00 Partly Cloudy SCT120 62.6 62.6 100% 29.97 0.0
10 05:55 SW 3 9.00 Overcast OVC110 62.6 62.6 100% 29.97 0.0
10 05:35 Calm 10.00 Mostly Cloudy BKN110 62.6 62.6 100% 29.96 0.0
10 05:15 Calm 10.00 Mostly Cloudy BKN120 62.6 62.6 100% 29.95 0.0
10 04:55 Calm 10.00 Overcast OVC120 62.6 62.6 100% 29.95 0.0
10 04:35 Calm 10.00 Mostly Cloudy BKN120 62.6 62.6 100% 29.95 0.0
10 04:15 Calm 10.00 Fair CLR 62.6 62.6 100% 29.95 0.0
10 03:55 Calm 6.00 Fog/Mist CLR 62.6 62.6 100% 29.95 0.0
10 03:35 Calm 10.00 Fair CLR 62.6 62.6 100% 29.94 0.0
10 03:15 Calm 9.00 Fair CLR 62.6 62.6 100% 29.94 0.0
10 02:55 Calm 10.00 Fair CLR 64.4 64.4 100% 29.95 0.0
10 02:35 Calm 10.00 Fair CLR 62.6 62.6 100% 29.95 0.0
10 02:15 Calm 9.00 Fair CLR 64.4 64.4 100% 29.95 0.0
10 01:55 S 3 10.00 Fair CLR 62.6 62.6 100% 29.95 0.0
10 01:35 Calm 10.00 Fair CLR 64.4 64.4 100% 29.95 0.0
10 01:15 Calm 10.00 Fair CLR 62.6 62.6 100% 29.94 0.0
10 00:55 Calm 10.00 Fair CLR 64.4 64.4 100% 29.94 0.0
10 00:35 Calm 10.00 Fair CLR 66.2 64.4 94% 29.94 0.0
10 00:15 Calm 10.00 A Few Clouds FEW120 66.2 66.2 100% 29.95 0.0
09 23:55 Calm 10.00 Mostly Cloudy BKN110 68 66.2 94% 29.95 0.0
09 23:35 Calm 10.00 Overcast OVC110 68 68 100% 29.95 0.0
09 23:15 N 3 10.00 Overcast OVC120 68 68 100% 29.95 0.0
09 22:55 Calm 10.00 Mostly Cloudy BKN110 68 68 100% 29.95 0.0
09 22:35 Calm 10.00 Mostly Cloudy BKN120 68 66.2 94% 29.95 0.0
09 22:15 Calm 10.00 Mostly Cloudy BKN120 69.8 68 94% 29.94 0.0
09 21:55 Calm 10.00 Fair CLR 69.8 68 94% 29.94 0.0
09 21:35 Calm 10.00 Fair CLR 69.8 68 94% 29.93 0.0
09 21:15 Calm 10.00 Fair CLR 73.4 68 83% 29.93 0.0
09 20:55 Calm 10.00 Fair CLR 73.4 69.8 89% 29.92 0.0
09 20:35 Calm 9.00 Fair CLR 75.2 69.8 83% 75 29.92 0.0
09 20:15 Calm 10.00 A Few Clouds FEW050 78.8 69.8 74% 81 29.92 0.0
09 19:55 Calm 10.00 Mostly Cloudy BKN050 80.6 66.2 62% 83 29.92 0.0
09 19:35 Calm 10.00 Partly Cloudy SCT050 80.6 68 66% 83 29.93 0.0
09 19:15 Calm 10.00 Fair CLR 80.6 66.2 62% 83 29.92 0.0
09 18:55 N 5 10.00 Partly Cloudy SCT050 SCT060 80.6 64.4 58% 82 29.92 0.0
09 18:35 N 3 10.00 Mostly Cloudy BKN050 BKN060 82.4 66.2 58% 85 29.92 0.0
09 18:15 NW 5 10.00 Partly Cloudy SCT055 82.4 66.2 58% 85 29.92 0.0
09 17:55 N 6 10.00 Partly Cloudy SCT055 SCT065 82.4 64.4 55% 84 29.93 0.0
09 17:35 N 6 10.00 A Few Clouds FEW050 FEW070 80.6 66.2 62% 83 29.93 0.0
09 17:15 N 5 10.00 Partly Cloudy FEW050 SCT065 80.6 66.2 62% 83 29.93 0.0
09 16:55 Calm 10.00 Fair CLR 80.6 64.4 58% 82 29.94 0.0
09 16:35 Calm 10.00 A Few Clouds FEW050 FEW090 FEW120 78.8 66.2 65% 81 29.94 0.0
09 16:15 E 6 10.00 Mostly Cloudy BKN050 BKN070 BKN090 78.8 64.4 61% 81 29.94 0.0
09 15:55 N 7 10.00 Mostly Cloudy SCT049 BKN070 BKN080 80.6 66.2 62% 83 29.95 0.0
09 15:35 N 6 10.00 Partly Cloudy FEW050 SCT070 SCT085 82.4 66.2 58% 85 29.95 0.0
09 15:15 NE 7 10.00 Partly Cloudy SCT048 SCT080 78.8 66.2 65% 81 29.95 0.0
09 14:55 NW 8 10.00 Partly Cloudy SCT047 78.8 66.2 65% 81 29.95 0.0
09 14:35 N 6 10.00 Partly Cloudy FEW046 SCT050 80.6 66.2 62% 83 29.96 0.0
09 14:15 Vrbl 6 10.00 A Few Clouds FEW046 FEW050 80.6 66.2 62% 83 29.96 0.0
09 13:55 N 5 10.00 Partly Cloudy FEW044 FEW050 SCT070 80.6 66.2 62% 83 29.96 0.0
09 13:35 Calm 10.00 Partly Cloudy SCT044 SCT055 80.6 64.4 58% 82 29.96 0.0
09 13:15 N 6 10.00 Partly Cloudy SCT044 SCT050 SCT060 78.8 68 70% 81 29.97 0.0
09 12:55 NW 6 10.00 A Few Clouds FEW042 80.6 66.2 62% 83 29.97 0.0
09 12:35 N 8 10.00 Fair CLR 80.6 66.2 62% 83 29.98 0.0
09 12:15 Vrbl 7 10.00 Fair CLR 78.8 66.2 65% 81 29.98 0.0
09 11:55 N 7 10.00 Fair CLR 78.8 66.2 65% 81 29.99 0.0
09 11:35 N 6 10.00 Fair CLR 78.8 66.2 65% 81 29.99 0.0
09 11:15 N 6 10.00 Fair CLR 77 68 74% 79 29.98 0.0
09 10:55 N 8 10.00 Fair CLR 77 68 74% 79 29.98 0.0
09 10:35 N 6 10.00 Fair CLR 75.2 66.2 74% 77 29.98 0.0
09 10:15 N 7 10.00 Fair CLR 75.2 66.2 74% 77 29.98 0.0
09 09:55 N 6 10.00 Fair CLR 75.2 68 78% 76 29.98 0.0
09 09:35 N 5 10.00 Fair CLR 73.4 66.2 78% 29.98 0.0
09 09:15 Calm 10.00 Fair CLR 73.4 68 83% 29.98 0.0
09 08:55 Calm 10.00 Fair CLR 71.6 68 88% 29.98 0.0
09 08:35 NE 5 9.00 Fair CLR 69.8 66.2 88% 29.98 0.0
09 08:15 Calm 10.00 Fair CLR 68 66.2 94% 29.98 0.0
09 07:55 Calm 10.00 Fair CLR 66.2 64.4 94% 29.98 0.0
09 07:35 NE 3 10.00 Fair CLR 62.6 62.6 100% 29.99 0.0
09 07:15 Calm 9.00 Fair CLR 60.8 60.8 100% 29.99 0.0
09 06:55 Calm 9.00 Fair CLR 59 59 100% 29.99 0.0
09 06:35 NE 3 8.00 Fair CLR 59 59 100% 29.98 0.0
09 06:15 N 3 8.00 Fair CLR 59 59 100% 29.98 0.0
09 05:55 N 5 5.00 Fog/Mist CLR 57.2 57.2 100% 29.98 0.0
Date Time (cdt) Wind (mph) Vis. (mi.) Weather Sky Cond. Air Dwpt Max. Min. Relative Humidity Wind Chill (°F) Heat Index (°F) altimeter (in) sea level (mb) 1 hr 3 hr 6 hr
6 hour
Temperature (ºF) Pressure Precipitation (in)